Theta_e
315 315 315 317 322 325 326 329 329 327 326 323 325 323 321 326 326 323 321 319 319 319 320 321 323 323 324 323 323 323 324 326 326 329 328 325 324 320 322 326 327 324 321 317 314 314 315 314 314 314 314 314 314 313 314 314 315 316 317 318 321 322 323 324 326 328 329 329 330 331 332 331 331 332 333 333 333 333 332 331 331 331 332 332 333 333 333 334 333 334 334 334 335 335 334 333 332
316 316 319 321 324 328 330 330 327 327 324 321 323 324 324 324 322 322 321 319 320 320 320 320 321 322 323 323 322 322 324 325 323 325 323 320 322 320 319 322 322 322 321 318 315 314 314 314 314 314 314 314 314 314 314 313 313 313 313 313 314 316 318 319 321 324 325 326 327 329 330 330 331 331 332 332 331 331 330 330 330 330 330 330 331 332 333 334 334 334 334 334 335 334 333 333 331
318 318 324 326 327 329 330 328 326 324 322 321 322 325 326 322 321 323 322 321 321 320 320 320 320 321 321 323 322 321 323 324 322 321 320 320 321 319 318 318 316 318 319 316 314 314 314 313 314 313 313 313 313 313 313 314 314 313 313 313 312 313 313 314 315 316 317 318 320 322 325 326 328 329 329 330 330 330 330 330 330 330 330 329 329 329 330 332 332 333 334 334 334 333 333 333 332
320 320 327 330 330 328 329 330 329 325 322 321 320 324 325 323 323 322 322 321 320 319 319 319 319 320 320 321 321 321 323 323 322 321 320 320 320 319 318 316 315 316 317 315 314 314 313 313 313 312 311 311 311 311 312 312 312 312 312 312 312 312 311 312 312 312 312 313 313 314 316 318 319 321 321 323 324 325 326 325 326 327 328 329 329 329 330 330 330 331 332 333 333 333 332 332 333
323 323 327 330 332 329 328 329 329 327 324 322 320 323 323 323 323 321 321 319 319 319 319 319 319 320 319 320 321 321 323 322 322 320 320 319 319 319 317 315 314 314 315 314 314 313 313 312 311 311 311 310 310 310 311 310 310 310 310 310 310 310 310 310 310 310 311 311 311 311 312 312 312 313 313 314 315 316 316 317 317 319 319 321 323 326 328 330 330 330 331 331 331 332 332 333 333
322 323 325 327 329 328 328 326 325 325 325 323 322 323 322 322 322 321 320 319 319 319 319 319 319 320 319 319 320 321 322 323 322 320 319 319 319 319 318 315 313 314 314 314 313 313 312 312 311 310 310 310 310 310 310 310 310 310 309 309 309 309 309 309 309 309 309 309 309 309 309 309 309 310 310 310 310 311 311 312 312 313 313 313 314 316 318 321 324 327 329 330 331 332 332 332 332
321 324 324 324 326 325 326 325 323 323 323 324 323 323 322 321 322 320 319 319 318 318 318 319 319 319 319 319 319 320 320 321 321 319 317 317 319 319 318 315 313 313 313 314 314 313 312 311 311 310 310 309 309 309 309 309 309 309 309 309 308 308 308 307 307 307 307 306 306 306 306 306 306 306 307 306 307 307 308 308 309 309 310 311 311 311 311 312 314 316 319 322 325 328 329 330 331
322 327 325 325 328 325 324 324 323 323 323 323 321 322 322 321 321 321 320 319 318 317 317 318 319 318 319 319 319 319 319 319 319 318 317 316 317 319 319 316 314 314 313 314 314 313 312 311 310 310 309 309 309 309 309 308 308 308 308 308 307 307 306 306 305 305 304 304 304 304 304 304 304 304 304 304 304 304 304 305 305 306 306 307 308 308 309 309 310 310 311 313 314 317 320 322 324
322 326 325 325 327 326 326 325 323 324 324 323 321 321 321 321 321 321 320 319 318 318 317 318 318 317 319 319 319 319 319 318 317 317 317 316 316 317 319 318 314 314 314 314 314 313 312 311 310 309 309 309 309 308 308 308 307 307 307 306 305 304 304 304 303 303 303 303 303 303 303 303 303 303 303 303 303 303 303 303 303 304 304 304 304 305 305 306 306 307 308 308 309 310 311 312 313
323 324 324 325 326 326 325 324 325 325 325 323 321 320 320 321 320 320 320 319 319 319 318 318 318 317 318 319 318 319 319 318 317 316 316 316 316 316 318 318 315 314 314 314 314 313 312 311 310 309 309 309 308 308 307 307 306 306 305 304 303 303 302 302 302 303 303 303 303 303 303 303 303 303 303 303 303 303 303 303 303 303 303 303 303 303 303 303 303 304 304 304 305 306 306 307 308
324 323 323 324 325 324 323 323 325 326 325 322 321 320 320 320 320 320 320 320 319 319 319 317 318 317 318 318 318 318 319 318 317 316 315 315 315 315 317 318 316 314 314 314 314 313 312 311 310 309 309 309 308 307 307 306 306 305 304 303 302 302 302 302 302 302 302 302 302 302 302 302 302 302 302 303 303 303 303 303 303 303 303 303 303 303 303 303 303 302 303 303 303 303 303 304 304
324 326 325 324 323 323 324 324 325 326 325 324 322 319 319 320 319 320 320 320 319 319 318 317 318 318 318 318 318 319 318 318 317 317 316 315 315 315 316 317 316 315 314 314 313 312 311 311 310 309 309 308 308 307 307 306 306 305 304 302 301 302 302 302 302 302 302 302 302 302 302 302 302 302 302 302 302 302 302 302 302 302 302 302 302 302 302 302 302 302 302 302 302 302 302 302 302
323 325 326 326 326 325 326 326 325 326 325 324 321 319 319 319 319 320 319 320 320 319 319 318 318 318 318 318 319 319 318 318 317 317 316 315 315 315 315 316 316 315 314 314 313 312 311 311 310 309 309 309 308 307 307 307 307 306 305 302 301 301 301 301 302 302 301 301 301 301 301 301 301 301 301 301 301 301 301 301 301 301 301 301 301 301 301 301 301 301 302 302 302 302 302 302 302
322 322 324 326 326 325 326 325 325 325 323 322 319 318 319 319 319 319 319 320 319 319 319 319 318 317 317 318 318 318 318 318 317 317 315 314 315 315 315 315 315 315 314 313 312 311 311 311 310 310 309 309 308 308 307 307 307 307 306 303 302 302 302 302 302 302 302 302 302 302 302 301 301 301 301 301 301 301 301 300 300 301 300 300 300 300 300 300 301 301 301 301 301 301 302 302 302
322 322 324 324 324 323 324 325 325 324 323 321 319 318 318 318 319 318 319 319 319 319 319 318 317 317 317 318 318 318 317 317 317 316 315 315 314 314 315 315 314 314 314 313 312 311 311 311 310 310 309 309 308 308 308 307 307 307 306 304 303 302 303 303 303 304 303 303 303 303 302 302 302 301 301 301 301 300 300 300 300 300 300 300 300 300 300 300 300 300 300 300 300 300 301 301 301
320 322 325 324 323 322 324 327 325 324 323 320 318 318 317 318 318 318 318 318 318 318 318 318 317 317 316 317 318 318 318 318 317 316 315 315 314 314 314 314 314 314 313 312 311 311 311 311 310 310 309 308 308 308 307 307 307 307 306 304 303 303 303 303 304 304 304 303 303 303 303 303 302 302 302 301 301 301 301 300 300 300 300 300 300 300 300 300 300 300 300 300 300 300 300 300 300
320 322 325 325 324 323 325 328 325 324 323 319 317 317 317 317 317 317 317 317 317 317 317 317 317 317 317 316 317 317 317 317 316 315 315 314 314 314 314 314 314 314 313 312 311 310 310 311 310 310 309 309 308 308 307 307 307 307 306 303 302 303 303 303 303 303 303 303 303 303 303 303 303 302 302 301 301 301 301 300 300 300 300 300 300 300 300 300 300 300 300 300 300 300 300 300 300
321 324 324 323 324 324 325 325 323 322 323 319 316 317 317 317 317 316 316 316 316 316 316 317 316 316 316 316 316 316 316 316 316 315 314 314 314 314 314 314 314 314 313 312 311 311 311 311 311 310 309 309 308 308 307 307 307 307 305 303 302 303 303 303 303 303 303 303 303 302 303 303 303 302 302 302 301 301 301 300 300 300 300 300 300 300 300 300 300 300 300 300 300 300 300 300 300
322 325 325 323 325 324 322 322 321 320 320 319 318 317 317 317 317 315 316 316 315 315 315 316 316 316 315 315 315 315 315 315 315 315 314 314 314 314 314 314 314 314 313 313 312 311 311 311 311 310 310 309 308 308 307 307 307 306 304 302 302 302 302 303 303 303 303 302 302 302 303 303 303 303 302 302 301 301 301 300 300 300 300 301 301 301 301 301 300 300 300 300 300 300 300 300 300
320 322 324 324 324 323 321 321 320 319 319 318 318 318 317 317 317 315 315 316 315 315 315 315 315 316 315 315 315 315 314 314 314 314 314 314 313 313 313 313 313 313 313 313 312 312 311 311 310 310 310 309 308 307 307 306 306 306 304 302 302 302 302 302 302 302 302 302 302 302 303 303 304 303 303 302 302 301 301 301 301 302 302 302 303 303 302 302 301 301 300 300 300 300 300 300 300
321 321 322 323 322 322 321 319 319 318 318 317 317 317 317 317 317 315 315 316 316 316 316 316 316 316 316 315 315 315 314 314 314 314 314 313 313 313 313 313 313 313 313 313 313 313 312 311 310 310 310 308 308 307 306 306 306 306 304 302 302 302 302 302 302 302 302 302 302 302 303 303 303 303 303 303 302 302 302 302 303 303 303 303 304 303 303 302 301 301 300 299 299 299 299 299 299
321 321 321 321 320 321 320 318 318 317 316 316 316 316 317 317 316 316 315 315 316 317 317 317 317 317 317 316 316 315 315 315 315 314 314 314 313 313 313 312 312 312 312 313 313 313 312 312 311 311 310 308 307 307 306 306 305 305 304 301 301 301 302 302 302 302 302 302 302 302 303 303 303 303 303 302 302 303 303 303 303 303 303 303 303 303 303 302 302 301 300 299 298 298 298 298 298
320 320 320 320 320 320 319 318 317 316 316 315 315 316 316 316 316 316 316 315 316 317 318 318 317 318 317 317 316 316 316 315 315 315 315 314 314 313 313 312 312 312 312 312 312 312 312 312 311 311 310 308 307 307 306 306 305 305 303 301 301 301 301 301 302 302 302 301 301 302 302 302 302 302 302 302 302 302 302 302 302 302 303 303 303 303 303 302 302 301 300 299 298 298 297 297 298
319 319 318 319 319 319 319 318 317 316 315 315 315 315 315 315 316 316 316 316 316 316 317 317 317 317 317 317 316 316 316 316 315 315 315 314 314 314 313 312 312 312 312 312 312 312 312 312 311 311 310 308 307 307 306 305 305 305 304 301 301 301 301 301 301 301 302 301 301 301 302 302 302 302 302 302 302 302 302 302 302 302 302 302 302 302 302 302 301 300 299 298 297 297 297 297 297
318 318 318 319 318 318 318 317 317 315 315 314 315 314 314 315 315 315 315 316 316 316 316 316 316 316 316 316 316 316 315 315 315 314 314 314 313 313 312 312 311 311 311 311 311 311 312 312 312 311 310 308 307 306 306 305 304 305 304 302 301 301 301 301 301 301 301 301 301 301 301 301 301 301 301 301 302 302 302 302 302 302 302 302 302 301 301 301 300 299 298 297 297 297 296 296 296
317 317 318 317 317 317 317 317 316 315 315 314 314 314 314 314 315 315 315 316 316 316 317 316 316 316 316 316 315 315 315 315 315 314 314 314 313 312 312 311 311 311 311 311 311 311 311 311 311 311 310 309 308 306 305 305 304 305 305 303 302 301 300 301 301 301 301 301 301 301 301 301 301 301 301 301 301 301 301 301 301 302 301 301 301 301 300 300 299 298 298 297 297 296 296 296 296
317 316 316 315 315 316 316 317 317 316 315 315 314 314 314 314 315 315 316 316 317 317 316 316 316 316 315 315 314 314 314 315 315 314 314 313 312 313 312 312 311 311 310 310 310 311 311 311 311 311 310 309 308 306 305 305 304 305 305 304 303 301 300 300 300 301 301 301 300 300 301 300 301 301 301 301 301 301 301 301 301 301 301 301 301 300 300 299 298 298 297 297 296 296 296 295 296
316 316 315 315 315 315 316 316 316 316 316 315 314 314 314 314 315 315 315 316 316 317 317 316 316 316 316 315 314 314 314 315 315 314 313 314 314 314 313 313 312 311 310 311 310 310 310 310 310 310 309 309 308 306 305 305 304 304 304 304 303 301 300 300 300 301 301 300 300 300 300 300 301 300 300 300 301 301 300 301 300 300 300 300 300 300 299 298 298 298 297 296 295 295 295 295 295
315 314 314 315 316 316 316 316 316 316 316 315 314 314 314 314 314 315 315 316 315 316 316 316 316 316 316 315 315 314 314 315 314 314 315 315 315 315 314 314 313 311 311 311 310 310 310 310 310 310 309 309 308 307 305 305 304 304 304 304 304 302 300 300 300 300 300 300 300 300 300 300 300 300 300 300 300 300 300 300 300 300 300 300 300 299 298 298 297 297 296 296 295 295 295 295 295
315 315 315 316 316 316 317 317 317 315 315 314 314 315 315 315 315 315 316 316 315 315 315 316 316 316 316 315 315 315 314 314 314 315 316 316 316 315 315 314 313 312 311 310 310 310 310 309 310 309 309 309 308 308 306 305 304 304 304 304 303 301 299 299 300 300 300 300 300 300 300 300 300 300 300 300 300 300 300 300 300 300 300 300 300 299 298 297 297 297 296 296 296 295 295 295 294
315 315 316 317 317 317 318 317 317 316 314 314 314 314 315 316 316 316 317 317 316 315 315 315 316 316 315 315 315 315 314 314 314 315 315 316 316 316 315 314 313 312 311 310 310 310 309 309 309 308 308 308 308 308 307 305 304 304 304 303 303 300 299 299 299 300 300 300 300 300 300 300 300 300 300 300 300 300 300 299 299 300 300 300 299 298 297 297 297 296 296 295 295 295 295 294 294
316 316 318 320 318 318 319 317 316 316 313 312 315 315 315 315 316 316 317 317 316 316 315 315 315 315 315 315 315 314 314 314 314 314 314 315 315 315 315 314 314 313 312 311 310 309 309 309 309 308 308 308 308 308 307 305 304 303 303 303 302 300 299 299 299 299 299 299 300 299 299 299 299 300 299 299 299 299 299 299 299 299 299 300 299 298 297 297 296 296 295 294 295 295 294 294 294
318 318 318 321 319 318 319 317 314 315 314 312 314 316 315 315 316 317 317 317 316 315 315 315 315 315 315 315 315 315 314 314 313 313 313 314 314 314 314 314 313 313 312 311 310 310 309 309 308 308 308 308 307 307 307 306 304 303 303 303 301 299 299 299 299 299 299 299 299 299 299 299 299 299 299 299 299 299 299 299 299 299 299 299 299 298 297 296 296 295 295 294 293 293 293 293 293
320 320 319 320 320 319 319 318 315 314 315 314 314 314 314 315 315 316 316 317 316 315 315 316 315 315 315 315 315 315 314 314 314 313 313 313 313 313 313 313 313 312 312 311 310 309 309 309 308 308 308 307 306 306 307 306 304 303 302 302 301 299 298 298 298 299 299 299 299 299 299 299 299 299 299 298 298 298 298 298 298 299 299 299 298 297 296 296 295 294 294 293 292 292 292 293 293
320 320 318 319 320 319 319 318 316 315 315 315 314 314 313 314 315 315 315 316 316 315 315 316 315 315 315 315 315 314 315 314 314 314 313 312 312 313 313 312 312 312 311 310 309 308 308 308 307 307 307 306 306 306 306 305 304 302 302 301 300 299 298 298 298 298 298 298 299 299 299 299 299 299 298 298 298 298 298 298 298 298 298 299 298 297 296 295 294 293 293 292 292 292 292 292 292
318 318 318 319 319 318 318 318 316 315 315 315 314 314 314 314 315 315 315 315 315 315 315 315 315 315 315 315 314 314 314 315 314 314 313 312 312 312 311 311 311 310 309 309 308 307 307 307 306 306 306 306 306 305 305 305 303 302 301 301 300 299 298 298 298 298 298 298 298 299 298 298 298 298 298 298 298 298 298 298 298 298 298 298 298 297 296 295 294 293 292 292 292 292 292 292 292
318 319 320 320 319 318 317 318 317 314 315 315 315 315 315 315 315 315 315 315 315 314 314 314 314 315 315 314 314 315 315 315 314 314 313 312 312 311 311 311 310 309 308 308 307 307 307 307 307 306 306 306 306 306 305 305 304 302 302 301 300 299 298 298 298 298 298 298 298 298 298 298 298 298 297 297 297 297 298 298 298 298 298 298 297 297 296 294 293 292 291 291 291 292 292 292 291
318 320 320 319 319 318 317 318 316 313 314 315 315 315 314 315 315 315 315 315 314 314 313 314 314 314 315 315 314 314 315 315 315 314 313 312 312 311 310 309 309 309 308 307 307 307 307 307 307 306 306 306 306 306 306 305 305 303 302 302 301 299 298 298 298 297 297 298 298 298 297 297 297 297 297 297 297 297 297 297 297 297 297 297 297 296 295 294 292 291 291 291 291 291 291 291 291
320 320 320 319 318 318 317 318 315 311 313 315 314 314 314 314 315 315 315 314 314 314 314 314 314 314 314 314 315 315 315 315 315 314 313 313 312 311 310 309 309 308 308 307 307 307 307 307 307 307 306 306 306 306 305 305 305 303 302 301 300 298 298 297 297 297 297 297 298 297 297 297 297 297 297 297 297 297 297 297 297 297 297 297 297 296 294 293 292 291 290 291 291 291 291 291 290
319 318 318 318 317 319 318 317 314 311 312 314 314 314 313 313 314 314 314 314 314 315 315 315 315 315 315 315 315 315 316 316 315 314 313 313 312 311 309 309 308 308 307 307 307 307 307 307 307 308 307 307 306 306 305 304 303 302 300 299 298 297 297 296 296 296 297 297 297 297 296 296 296 296 296 296 297 297 297 297 297 297 297 297 296 295 294 292 291 291 290 290 290 290 290 290 290
319 320 318 317 317 318 318 318 317 314 313 314 315 314 314 315 315 315 315 314 314 314 314 315 315 315 315 315 315 315 316 316 315 314 313 313 313 311 310 309 308 308 307 307 307 307 308 308 308 308 307 307 306 305 304 303 302 301 299 298 297 296 296 296 296 297 297 297 297 297 296 296 296 296 296 296 296 296 296 296 296 296 296 296 295 294 293 292 291 290 290 290 290 290 290 290 290
317 321 321 318 318 318 319 321 321 320 319 316 316 317 316 318 318 318 318 317 316 314 314 314 314 315 315 315 315 315 315 316 315 315 314 313 313 312 310 309 308 308 308 308 308 308 308 308 308 308 307 306 305 305 304 303 302 301 300 299 298 297 297 297 297 297 297 297 297 296 296 296 296 296 296 296 296 296 296 296 296 296 296 296 294 293 292 291 290 290 290 290 290 290 290 290 290
315 322 326 321 318 321 323 322 321 323 321 317 319 319 317 317 317 317 318 319 318 316 316 315 313 314 315 315 314 314 315 315 315 315 314 313 313 311 310 309 310 310 309 308 307 307 307 308 308 307 307 306 305 304 303 303 302 301 301 300 299 299 298 298 298 297 297 297 296 296 296 295 296 295 296 296 296 296 296 296 296 296 296 295 294 292 291 290 290 290 290 290 290 290 290 289 289
318 323 325 320 318 320 322 321 321 322 319 317 320 320 317 316 315 316 317 318 318 316 317 316 313 313 314 315 314 314 315 316 315 314 314 313 313 312 311 311 311 311 309 308 308 308 308 307 307 307 307 306 305 304 303 303 302 302 301 300 299 298 298 298 297 297 296 296 296 296 296 295 295 295 295 295 295 296 296 296 296 296 295 294 293 292 291 290 290 290 290 290 290 289 289 289 288
319 320 320 319 319 318 318 318 320 319 317 318 321 319 317 316 315 317 317 316 317 315 316 316 314 313 313 314 315 314 315 315 315 315 314 313 313 312 311 311 311 310 309 309 309 309 308 307 307 306 306 306 305 304 303 303 302 302 301 300 299 298 297 296 296 296 296 296 296 296 295 295 295 295 295 295 295 295 295 295 295 295 295 294 293 292 291 290 290 290 290 289 289 289 289 288 288
318 318 318 319 318 316 316 317 317 317 316 317 321 320 316 316 317 319 317 315 316 315 315 315 313 313 314 314 315 315 315 315 316 315 314 313 313 311 311 310 310 310 310 309 309 308 308 307 307 306 306 306 305 304 303 302 302 301 300 299 298 298 296 295 295 295 295 296 296 295 295 295 295 295 295 295 295 295 295 295 295 295 294 293 292 291 290 290 290 290 289 289 289 289 288 288 287
315 317 317 318 318 316 315 315 315 317 317 317 319 319 316 316 319 319 317 316 316 315 314 314 313 313 314 314 315 315 315 316 316 314 313 312 311 310 310 310 310 310 310 309 309 309 308 307 307 307 307 306 305 304 303 302 301 301 300 299 298 297 296 296 295 295 295 295 295 295 295 294 294 294 295 295 295 295 295 295 295 294 293 292 292 291 290 290 289 289 289 289 289 288 288 287 287
315 317 315 317 320 317 316 315 316 318 318 318 321 319 316 317 317 317 316 316 316 315 314 316 317 314 314 315 316 316 316 316 316 315 313 311 311 310 310 311 311 310 310 310 310 310 309 308 307 307 307 306 305 304 303 303 302 301 300 299 298 297 297 296 296 296 296 296 295 295 294 294 294 294 294 294 294 295 295 295 294 294 293 292 291 290 290 290 289 289 289 289 288 288 287 287 287
317 317 315 318 319 319 319 320 321 321 318 320 323 320 317 316 316 316 316 316 316 315 314 316 317 315 314 316 317 317 317 317 315 314 312 312 312 312 313 313 312 312 312 312 312 311 309 308 307 307 308 308 306 305 304 303 302 301 300 299 298 297 296 296 296 296 296 295 295 295 294 294 294 294 294 294 294 294 294 294 294 293 292 291 290 290 290 289 289 289 289 288 288 288 287 287 287
314 316 317 320 320 318 320 321 324 322 319 319 320 321 320 317 316 318 317 316 316 314 314 315 315 315 315 316 317 317 316 315 314 313 312 312 313 314 314 314 313 313 313 313 312 311 309 308 308 308 309 308 307 306 305 304 303 301 300 298 297 296 296 296 295 295 295 295 295 294 294 294 294 294 294 294 294 294 294 294 293 292 291 291 290 290 289 289 289 289 288 288 288 288 287 287 287
311 314 317 319 320 318 318 320 320 320 319 319 317 320 321 316 317 320 317 315 315 313 315 315 315 315 315 315 316 316 315 314 313 312 312 313 313 314 314 314 314 314 313 313 312 310 309 309 309 309 310 309 309 307 306 305 304 303 301 299 297 296 296 295 295 295 294 294 294 294 294 293 293 293 294 294 294 294 294 293 292 291 291 290 290 289 289 289 289 288 288 288 288 287 287 287 287
313 314 316 317 319 318 317 320 318 317 319 318 317 320 319 314 315 318 316 316 315 313 314 314 314 315 314 315 315 315 314 314 313 312 312 313 314 314 314 314 314 314 313 313 312 311 310 310 310 310 310 310 310 309 307 306 305 304 302 300 298 297 296 295 295 294 294 294 294 294 293 293 293 293 293 293 293 293 293 293 292 291 290 290 289 289 289 289 288 288 288 288 287 287 287 287 286
315 315 317 317 319 319 318 320 319 317 318 317 316 318 316 313 315 317 315 315 316 315 315 314 313 313 313 314 314 314 314 313 313 312 312 313 314 314 314 314 314 314 314 314 313 312 311 311 310 310 310 310 310 310 308 307 306 305 303 301 299 298 296 296 295 294 294 293 293 293 293 292 292 293 293 293 293 293 293 292 291 290 290 289 289 289 289 288 288 288 288 287 287 287 286 286 286
317 318 317 317 318 319 318 318 319 319 318 317 315 315 314 313 316 318 316 315 314 315 316 315 313 312 312 313 314 314 314 313 312 312 312 312 313 314 314 314 314 314 314 313 313 313 311 311 310 310 310 310 311 311 309 308 307 306 305 303 301 299 297 296 295 294 293 293 293 293 292 292 292 292 292 293 293 293 292 291 290 290 290 289 289 289 289 288 288 288 288 287 287 286 286 286 286
315 316 315 316 319 320 318 317 318 319 317 315 315 315 313 313 314 315 316 315 314 314 315 315 314 313 312 313 314 314 313 314 313 312 312 311 312 312 313 314 314 314 314 313 313 312 311 311 310 310 310 310 310 310 310 308 307 306 305 304 301 299 298 296 295 294 293 293 293 292 292 292 292 292 292 292 293 292 292 291 290 290 289 289 289 289 288 288 288 288 287 287 287 286 286 286 286
311 311 313 314 315 318 319 317 316 316 315 314 315 315 314 314 315 315 316 315 314 314 314 314 315 313 312 313 314 313 313 313 313 312 312 312 312 312 312 312 313 313 313 313 312 312 311 311 310 310 309 308 308 309 309 309 308 306 305 304 302 299 298 296 295 294 293 293 293 292 292 292 292 292 292 292 292 292 291 290 290 289 289 289 289 289 288 288 288 287 287 287 286 286 285 285 285
312 312 313 313 312 314 317 317 316 316 315 314 315 315 314 315 316 317 317 315 313 314 314 316 316 312 312 313 313 313 313 312 313 312 312 312 312 312 311 311 312 312 312 312 312 311 311 310 309 309 309 308 308 308 309 309 308 306 305 304 302 300 298 296 295 294 293 293 292 292 291 291 291 291 292 292 292 291 290 290 289 289 289 289 289 288 288 288 287 287 287 286 286 285 285 285 285
314 313 313 313 313 314 315 316 316 315 315 314 315 315 314 314 316 317 317 315 315 315 317 320 317 312 313 314 313 313 313 312 312 312 312 312 312 312 311 311 311 311 310 310 310 310 310 309 309 308 308 308 308 308 309 309 308 306 305 304 302 299 297 296 295 294 293 292 292 291 291 291 291 291 291 291 291 291 290 289 289 289 289 288 288 288 288 287 287 287 286 286 285 285 285 285 285
Wind_Speed
4 3 2 2 3 3 2 1 2 3 2 4 6 3 2 3 4 3 3 4 1 2 5 4 5 6 4 2 4 5 6 4 1 2 2 1 8 22 21 19 18 16 13 11 14 13 9 7 6 5 4 4 4 3 4 4 4 4 5 5 5 6 6 6 6 6 6 6 6 7 7 7 7 7 7 7 7 8 8 8 8 8 8 8 8 8 9 10 10 10 10 11 11 11 12 13 13
4 5 5 3 4 2 2 1 2 3 3 4 4 1 4 3 3 3 3 4 4 7 7 4 4 3 2 2 4 4 6 6 2 4 3 4 12 21 20 19 17 16 14 12 15 11 8 7 6 4 3 3 2 1 2 3 3 3 4 5 5 5 6 6 7 7 8 8 8 9 9 10 10 10 10 10 11 12 12 11 10 9 10 10 9 9 10 10 9 10 10 11 11 12 14 15 16
4 6 8 3 0 1 5 1 2 3 3 4 1 2 4 3 4 4 5 8 10 10 7 5 3 1 2 3 2 2 3 5 2 3 6 8 13 19 18 17 15 15 15 14 15 10 7 7 5 4 3 2 1 1 2 2 2 2 3 4 4 5 5 6 6 7 8 8 9 10 11 11 12 12 13 13 14 15 15 14 13 12 12 11 11 11 11 11 11 12 11 11 12 14 15 16 17
4 5 8 1 4 3 3 2 3 3 4 3 1 1 2 4 6 7 9 11 10 8 6 4 2 0 2 3 2 1 4 6 1 1 5 9 11 15 18 16 16 15 14 15 14 10 8 7 5 3 2 2 2 2 1 1 1 1 2 2 3 3 4 4 5 5 6 6 7 8 9 11 12 13 14 15 15 16 16 17 16 14 13 12 12 12 12 13 13 14 14 14 15 16 16 17 17
4 3 6 3 2 2 2 2 3 3 5 3 1 1 1 4 8 8 9 10 8 7 5 4 2 1 4 6 3 1 4 5 3 4 5 7 8 14 18 16 16 15 15 16 13 10 8 5 3 2 2 2 3 3 3 3 4 4 4 4 4 4 4 4 4 4 5 5 5 6 6 7 8 9 10 12 13 13 14 15 15 15 14 13 12 12 13 13 14 15 15 16 17 17 17 17 17
4 4 3 2 3 4 2 2 4 5 5 4 2 3 2 4 10 11 10 9 7 6 6 5 2 1 3 6 6 4 5 4 4 4 5 6 7 13 18 17 17 17 17 16 12 10 7 4 3 1 2 3 3 4 4 4 4 4 4 4 4 4 4 5 5 5 5 5 5 6 6 6 7 7 8 9 10 10 11 11 12 12 12 12 12 12 13 13 14 15 15 16 17 17 18 19 19
4 3 1 2 3 3 2 4 5 5 3 3 2 3 3 8 13 13 10 6 4 4 7 6 3 1 1 4 6 9 9 9 8 6 5 4 8 13 17 19 19 18 18 16 12 9 7 4 3 1 2 2 2 3 3 3 3 3 3 3 3 3 4 4 4 5 5 6 6 6 6 7 7 7 8 8 9 9 10 10 10 11 11 11 12 12 12 13 13 14 15 16 16 17 18 19 19
4 2 1 1 2 2 3 5 5 6 2 1 2 3 4 10 14 10 7 5 4 5 8 7 5 2 3 5 4 9 12 14 15 14 12 7 7 12 17 20 19 19 18 15 12 9 7 5 3 2 2 2 2 3 2 2 2 2 2 2 2 3 3 4 4 4 5 5 5 6 6 6 6 7 8 8 9 9 10 10 11 11 11 12 12 12 13 14 14 14 15 15 16 17 18 19 19
3 0 1 1 2 2 4 5 6 7 3 3 4 4 3 9 11 7 6 5 5 7 10 11 10 5 3 6 5 8 11 13 15 16 16 12 10 12 17 21 20 19 18 15 12 10 8 6 4 4 4 4 4 4 4 3 2 1 1 1 2 2 2 3 3 3 4 4 4 5 5 5 5 6 6 7 7 8 8 9 10 10 11 11 12 12 13 14 15 15 16 16 16 16 17 18 19
1 3 2 0 2 3 5 5 5 4 2 3 4 5 4 7 8 7 7 6 7 8 10 12 12 9 4 4 6 9 12 11 12 12 13 14 13 14 17 21 20 19 18 16 13 12 10 8 7 7 7 7 6 6 5 4 2 1 0 1 1 1 1 1 1 2 2 3 3 4 4 4 4 4 5 5 5 5 5 6 7 7 8 9 10 11 12 13 14 15 16 16 17 17 18 18 19
3 6 3 2 3 4 5 4 4 1 4 3 4 6 6 6 6 6 7 6 10 10 10 12 8 13 10 6 8 10 13 11 12 12 11 13 14 15 18 21 21 21 19 17 15 14 12 10 10 10 9 8 7 6 5 4 3 1 1 1 1 1 0 0 0 0 1 1 2 2 3 3 3 3 3 3 3 3 3 3 3 4 4 5 6 7 8 9 10 12 13 14 15 16 17 18 19
3 4 3 2 4 4 5 4 6 3 2 2 5 8 7 7 5 5 7 6 10 11 12 14 6 9 9 6 10 13 15 13 14 14 13 13 14 16 19 21 23 23 20 19 18 16 14 13 12 12 11 9 7 6 5 3 2 1 1 1 1 1 1 2 2 2 1 1 2 2 2 2 3 3 3 3 3 3 4 4 4 4 4 5 5 5 5 6 6 7 8 9 11 12 13 15 16
4 3 1 2 4 4 5 5 5 5 3 2 4 9 8 7 7 7 7 7 9 9 11 15 7 5 6 4 7 13 15 15 16 16 13 13 15 17 19 22 23 23 22 21 19 17 16 15 14 14 11 9 7 6 5 4 3 3 3 3 2 1 0 1 1 2 2 3 3 3 4 4 5 5 5 5 5 5 6 6 6 6 6 7 7 7 8 8 8 8 8 8 8 9 10 11 12
6 5 3 3 4 4 5 5 4 4 3 2 6 9 8 6 7 8 8 6 7 6 6 13 10 4 6 6 6 14 17 16 18 16 13 14 16 18 20 22 23 23 23 22 20 19 18 17 17 15 12 10 8 7 6 5 4 4 4 4 4 3 2 2 2 3 4 5 5 6 6 7 7 7 8 8 8 8 8 8 8 8 8 9 9 9 9 10 10 10 10 10 10 10 10 10 10
7 6 3 3 4 5 5 4 3 2 1 2 5 6 6 5 6 7 9 6 4 4 5 11 13 5 4 6 6 13 17 16 15 13 14 15 16 18 20 21 22 23 23 23 22 21 20 19 18 16 14 12 11 9 8 6 5 5 4 5 5 4 3 3 5 6 7 7 7 8 8 8 8 9 9 10 10 10 10 10 10 10 10 10 11 11 11 11 12 12 12 12 12 12 12 12 11
8 5 2 3 4 5 3 3 1 1 1 3 6 5 4 6 8 7 9 8 3 5 9 11 16 11 6 7 7 11 14 13 12 11 13 15 17 19 20 21 23 24 24 24 23 22 22 21 19 17 15 14 13 11 9 8 7 7 6 6 6 5 5 5 6 6 7 7 7 7 7 7 7 8 9 9 10 10 10 10 11 11 11 12 12 12 12 13 13 13 13 13 13 13 13 13 12
5 2 2 3 5 5 2 3 1 1 1 4 7 7 4 5 8 10 11 12 9 8 12 12 16 18 14 13 13 14 15 15 13 13 14 15 17 19 20 22 24 25 25 26 25 24 24 22 20 19 18 17 15 13 12 11 10 9 8 8 8 8 7 7 7 7 7 7 7 7 6 6 6 7 8 9 9 10 10 11 11 11 11 12 12 13 13 14 14 14 14 14 14 14 13 13 13
3 2 3 4 5 5 1 2 2 1 0 3 7 8 5 3 6 10 9 12 15 13 15 16 16 18 19 20 20 21 20 20 20 18 17 17 19 20 21 23 25 26 26 27 27 27 26 24 23 22 21 19 18 16 14 13 12 11 10 10 11 10 10 9 9 8 8 8 8 7 6 6 6 6 7 8 9 9 10 10 10 10 11 11 12 12 13 13 14 14 14 14 14 14 15 15 15
6 3 3 5 5 4 2 4 4 3 4 3 4 7 7 5 5 8 5 8 14 13 16 18 18 19 21 24 25 27 26 25 25 24 22 21 21 22 22 24 25 26 27 27 28 28 28 27 26 25 23 22 20 18 16 15 13 12 12 12 13 13 12 11 10 10 9 9 9 8 7 6 6 6 7 7 8 8 8 8 8 9 9 10 11 12 12 13 13 13 13 14 14 14 15 15 15
8 6 3 6 4 5 6 5 4 3 5 5 5 5 7 8 6 6 5 8 10 12 14 16 20 25 26 28 28 29 29 29 29 27 26 25 24 24 24 25 26 26 26 27 28 29 29 29 28 27 25 24 22 20 18 17 15 14 14 15 15 15 14 12 11 11 10 10 10 9 8 7 6 6 7 7 7 7 7 6 7 7 8 9 10 11 12 13 14 14 14 14 15 15 15 15 15
6 6 4 7 4 5 6 5 2 3 3 5 9 5 4 9 9 8 7 6 8 13 19 20 24 28 27 29 30 30 30 30 31 30 30 28 27 26 26 26 26 26 26 27 29 30 30 30 29 29 27 25 24 22 20 19 17 16 16 17 17 17 15 14 13 12 11 11 11 10 9 7 7 7 7 7 6 6 6 6 7 7 8 9 10 11 13 14 15 16 16 16 16 16 16 17 17
4 7 10 14 12 6 4 3 2 5 4 6 8 7 7 7 10 14 11 8 11 13 16 19 23 26 26 28 28 28 29 29 29 30 30 30 29 29 28 28 27 28 29 29 30 30 31 31 31 30 28 26 25 24 22 21 19 19 19 19 19 18 17 16 14 13 13 12 12 11 10 9 8 7 7 7 7 7 7 7 8 8 8 9 10 11 13 14 15 16 17 17 16 16 16 17 18
5 8 13 18 17 10 7 6 6 7 6 7 6 8 9 6 9 15 17 22 26 19 13 14 16 18 20 23 26 27 28 28 28 27 28 28 29 29 29 29 29 29 30 31 31 31 31 32 32 31 28 27 27 26 25 23 21 21 21 21 21 20 19 17 16 15 14 14 13 13 12 10 9 8 8 8 8 8 8 8 8 8 8 9 10 11 13 14 16 17 17 17 17 17 17 17 17
6 7 11 17 18 13 12 10 9 10 9 11 9 8 9 9 8 12 22 32 33 27 21 20 20 18 17 19 23 25 26 27 27 27 27 27 27 27 27 29 30 30 31 32 32 32 31 32 32 32 30 28 28 28 27 24 23 24 23 22 22 21 20 19 17 16 15 15 14 14 13 12 11 10 9 9 10 9 9 9 8 8 9 10 11 12 14 15 16 17 18 19 19 18 18 18 18
8 8 12 14 13 12 13 13 13 13 13 14 11 10 13 16 12 13 29 37 29 27 25 24 25 24 22 23 25 26 27 28 29 29 28 29 28 27 28 30 31 32 33 33 33 33 32 32 32 32 32 30 29 29 28 26 25 25 24 23 24 23 22 20 18 17 17 16 15 15 14 13 12 11 11 10 10 10 10 9 8 8 9 10 11 13 14 16 17 18 19 20 20 20 20 20 20
5 8 11 11 12 14 14 15 16 15 15 13 9 12 17 19 13 15 36 41 30 28 26 25 26 25 26 26 29 30 31 33 32 32 31 30 29 30 31 31 33 34 35 34 34 34 32 32 32 32 32 32 30 30 29 28 28 26 25 25 24 23 23 21 19 19 17 16 16 16 14 14 13 12 12 11 11 10 10 9 8 8 9 10 11 13 15 16 18 19 20 21 21 21 21 22 22
6 9 12 14 17 20 20 19 19 17 16 15 12 10 15 16 8 12 32 29 20 23 26 27 27 27 29 28 29 31 33 34 34 33 32 32 32 33 33 33 34 36 36 36 36 35 34 33 33 32 32 33 32 30 31 31 29 27 26 26 25 24 23 21 20 20 18 17 17 16 15 14 13 13 12 12 11 10 9 8 7 8 9 10 12 14 15 17 19 20 21 22 22 23 23 23 24
10 9 12 16 18 22 23 21 21 17 12 17 15 7 12 10 6 18 34 25 13 15 19 24 26 29 31 30 30 30 32 33 32 33 34 34 34 33 34 34 34 36 37 37 37 36 35 35 34 33 33 34 34 32 32 32 30 29 27 26 25 25 24 23 22 21 19 19 18 17 16 15 15 14 13 12 11 9 8 7 7 8 9 11 13 15 16 18 19 20 22 22 23 24 24 24 25
9 6 7 13 14 16 20 21 22 16 7 13 13 4 10 9 14 30 39 32 22 18 18 20 24 28 29 31 31 31 33 32 32 35 35 34 33 33 34 32 32 35 37 37 37 37 36 35 35 34 34 35 35 33 33 33 32 30 28 26 25 25 24 24 23 22 21 20 19 18 17 16 16 15 14 12 11 9 8 8 8 9 10 12 14 16 17 18 19 21 22 22 23 24 24 25 25
8 6 5 10 9 9 17 19 19 14 7 13 13 2 8 9 20 33 33 31 26 22 23 23 23 26 28 31 33 34 35 34 36 37 36 34 33 34 33 31 32 34 36 37 38 38 37 36 36 36 36 35 35 35 34 33 33 31 29 27 25 25 25 25 24 23 22 21 20 19 18 17 16 16 15 13 11 10 9 9 9 9 11 13 15 17 17 18 20 21 22 23 23 24 24 25 25
5 5 5 5 4 6 10 7 12 10 7 17 13 4 9 7 17 25 23 25 24 23 26 25 25 27 28 31 33 35 36 37 40 39 37 36 35 35 33 32 32 33 36 38 38 38 37 37 36 37 37 36 36 36 35 34 34 32 29 27 26 26 26 26 25 24 23 22 21 19 18 18 17 17 15 13 12 10 9 9 9 10 12 14 16 18 18 19 20 21 23 23 24 24 24 24 26
3 2 5 4 4 7 7 3 14 10 6 15 11 4 9 9 18 20 16 23 23 23 25 24 25 28 29 32 34 37 37 38 40 40 39 37 36 37 35 33 32 33 35 37 38 38 38 38 37 38 38 36 36 37 36 35 34 32 30 28 26 27 28 27 27 25 24 23 21 20 19 18 18 18 16 14 12 10 9 8 9 11 13 15 18 19 18 19 20 21 22 23 24 24 24 25 25
4 5 6 6 5 8 6 3 11 10 6 11 12 5 7 7 13 12 8 19 24 22 22 23 25 26 28 32 35 36 37 38 40 40 40 38 38 38 37 35 33 33 35 36 38 39 38 39 38 38 38 36 36 38 37 35 34 33 31 28 27 29 29 29 28 27 26 24 22 21 20 19 19 18 16 14 12 10 9 9 10 12 14 16 18 19 19 20 21 21 22 23 23 24 25 25 26
4 5 5 7 8 8 5 2 6 8 7 7 11 9 12 9 9 11 8 15 21 20 21 23 25 26 29 33 34 34 34 37 40 41 40 38 38 39 39 37 35 34 36 37 38 38 38 38 39 38 38 37 37 38 37 36 35 33 31 29 29 30 30 29 29 28 26 25 23 22 21 20 20 19 16 14 12 11 10 10 12 13 15 18 19 20 19 20 21 21 22 22 23 24 25 26 28
5 6 5 6 7 7 9 5 3 9 6 6 9 9 16 15 11 18 23 21 19 20 22 25 30 31 34 37 36 35 34 37 40 40 39 37 36 37 38 38 37 37 37 38 38 38 38 38 39 38 38 38 37 37 37 36 35 34 33 31 30 31 31 31 30 29 27 26 25 23 21 22 22 19 16 14 13 12 12 12 13 15 17 18 20 20 20 20 21 21 22 22 22 23 25 26 28
9 10 7 7 7 8 13 9 4 10 6 7 11 11 16 16 11 15 25 27 25 23 23 26 30 32 35 37 36 34 34 37 38 36 35 35 34 35 37 37 38 38 38 38 38 38 39 39 39 38 39 38 37 38 37 37 37 36 34 33 32 32 32 32 31 30 28 27 26 23 22 24 23 20 17 15 14 13 13 14 15 16 17 19 20 20 20 21 21 21 22 22 23 23 24 26 28
12 11 9 8 8 10 14 10 4 9 6 8 12 13 15 16 13 12 20 24 22 21 20 23 28 31 36 38 35 34 35 36 33 31 32 30 29 32 35 36 37 38 37 38 38 38 39 39 39 39 39 39 38 39 39 39 39 38 37 35 34 33 33 33 32 31 30 29 27 24 24 25 23 20 18 16 15 14 14 15 16 17 18 19 20 21 21 21 21 22 22 22 24 25 26 26 28
11 9 8 8 7 11 14 9 4 6 4 7 10 10 13 15 12 12 17 17 16 19 20 24 29 32 38 38 36 35 31 29 27 27 28 25 25 29 33 35 37 38 38 38 38 38 38 38 39 39 38 39 39 39 39 39 39 38 36 34 34 34 34 34 33 32 31 30 28 26 26 25 23 21 19 17 16 15 15 16 16 17 18 19 20 21 21 21 21 21 22 23 24 26 26 26 27
9 7 5 7 8 10 12 6 2 3 2 6 8 9 12 14 13 13 15 16 19 27 29 30 32 32 36 37 36 32 23 22 24 25 26 23 24 28 30 34 36 37 37 38 38 37 38 38 38 37 37 38 39 39 40 39 39 38 35 34 33 34 34 34 33 32 32 31 29 27 26 25 23 21 19 17 16 15 16 16 17 18 19 20 21 21 21 21 21 21 22 24 25 26 26 26 26
7 7 5 8 9 8 7 4 2 4 5 6 7 8 10 12 14 14 20 26 27 33 34 35 37 36 38 39 36 29 20 20 24 24 25 23 24 27 29 32 34 35 37 37 38 38 38 38 37 36 37 38 39 40 40 39 38 37 35 34 34 35 35 35 35 34 34 32 29 28 27 26 24 22 20 18 17 16 16 17 17 18 20 21 21 21 21 21 21 21 22 24 25 27 27 26 26
8 7 7 10 11 11 10 6 2 4 5 3 4 8 9 10 13 12 15 22 23 24 26 27 34 38 39 38 36 30 22 21 24 26 26 24 25 27 28 30 32 33 36 37 37 37 37 36 35 35 36 38 39 40 40 40 40 39 38 37 37 37 37 36 36 36 35 32 30 29 28 26 25 23 21 19 18 18 17 18 18 19 20 22 22 21 21 21 21 21 22 23 24 27 29 28 28
9 7 11 15 14 13 13 8 5 3 4 1 2 7 8 6 10 10 6 8 10 13 15 18 27 35 36 34 34 30 22 22 26 27 27 25 24 27 28 29 30 31 33 34 34 34 34 34 33 34 36 38 39 40 41 41 42 42 41 41 41 41 40 39 38 36 35 32 30 29 28 27 26 24 22 21 20 19 18 19 19 20 21 22 22 21 21 21 21 22 23 24 25 26 29 30 30
9 4 6 10 10 9 9 6 2 2 5 3 4 3 9 6 8 9 6 5 8 9 10 14 23 30 34 35 34 28 20 21 26 26 26 25 24 27 29 28 27 28 29 30 32 32 33 33 33 34 35 37 38 40 42 43 43 43 43 43 42 41 41 39 37 36 34 32 30 30 29 28 27 25 23 22 21 20 19 19 19 20 22 22 22 21 21 21 22 23 24 25 26 27 28 30 31
7 2 1 1 3 5 4 3 4 3 4 3 5 4 9 13 7 9 10 8 8 8 9 12 18 25 31 34 35 28 21 22 25 25 26 25 25 28 28 26 25 25 26 28 29 30 31 32 33 33 34 35 37 39 42 43 44 43 43 43 42 42 41 39 37 36 35 33 32 32 30 29 28 26 25 23 22 21 20 20 20 21 22 22 21 21 21 22 23 24 25 26 27 28 28 30 31
4 1 1 3 1 1 1 2 4 3 4 4 5 7 6 15 6 7 10 10 9 11 12 13 15 21 27 29 31 28 23 23 24 24 25 24 26 27 25 23 23 24 25 26 27 28 30 31 32 32 32 34 36 39 41 42 43 42 42 43 43 42 41 39 38 38 37 36 34 33 31 30 29 28 26 24 23 22 21 20 21 21 22 21 21 21 22 23 24 25 25 27 28 28 28 29 30
4 2 3 4 2 1 2 2 2 2 5 6 6 7 4 15 7 6 7 8 10 11 11 12 15 22 26 24 25 25 22 23 22 22 22 23 24 23 22 22 22 23 24 25 26 27 29 30 31 31 31 33 35 38 40 41 42 42 43 43 43 43 42 42 41 40 39 37 35 33 32 32 31 29 27 26 24 23 22 21 21 22 21 21 21 22 22 23 24 25 27 28 29 29 29 29 29
3 3 2 2 1 1 1 2 2 1 9 7 10 13 8 10 5 7 7 7 10 10 8 9 12 20 25 23 22 22 21 22 21 19 19 21 22 22 22 22 23 23 24 26 27 27 29 30 31 30 30 32 35 37 39 40 41 42 43 44 44 45 45 44 44 43 41 39 36 35 34 33 32 30 29 27 25 23 22 22 22 22 21 21 21 21 23 24 25 27 28 29 29 29 28 28 29
3 4 2 1 3 2 3 1 3 2 10 5 11 15 13 11 5 3 5 6 11 10 8 10 11 15 22 23 20 20 21 22 21 19 19 20 22 23 23 23 24 25 26 27 27 27 29 30 31 30 30 32 35 37 38 39 40 42 43 44 45 46 46 46 46 44 42 40 37 36 35 34 33 32 30 28 26 24 23 22 22 22 21 20 20 21 23 24 26 28 29 29 29 27 27 27 28
3 5 4 1 3 2 1 2 2 5 10 5 11 12 11 14 9 4 6 6 10 10 10 12 11 13 18 16 15 17 19 20 20 19 19 20 22 24 26 25 26 27 27 26 27 28 29 30 30 28 27 29 33 35 37 38 39 41 43 45 46 47 47 47 47 45 43 41 38 37 37 36 35 33 30 28 26 24 23 23 22 22 21 20 20 21 23 25 27 28 29 29 28 27 27 27 27
7 6 6 5 3 3 4 4 3 7 9 5 7 9 6 9 6 10 13 11 11 13 15 15 13 16 19 15 13 15 16 18 18 18 19 21 22 24 26 26 26 27 26 27 27 28 29 29 28 26 25 27 31 34 35 36 38 41 43 45 47 48 48 48 47 46 44 41 40 39 38 37 35 33 31 28 26 24 23 23 23 22 20 20 20 22 24 26 27 28 29 28 28 27 27 27 28
9 6 5 6 5 3 4 4 7 8 6 4 3 5 4 4 2 11 16 15 17 19 21 20 19 22 20 15 14 15 16 18 17 16 18 20 22 24 25 25 26 26 26 28 29 29 29 28 26 24 23 25 28 32 34 35 37 39 43 45 47 48 48 48 47 46 45 42 41 39 38 37 35 32 31 28 27 25 24 23 22 21 20 20 21 23 25 26 27 28 28 28 27 27 27 27 28
6 4 3 6 5 5 5 7 9 5 5 5 4 4 6 5 6 9 11 11 14 16 19 19 21 23 19 16 16 17 19 20 20 18 18 20 23 24 25 26 26 27 27 29 30 30 29 27 25 23 23 23 26 30 32 33 36 38 41 45 47 48 49 49 48 47 46 44 42 40 39 37 35 33 31 29 27 25 24 23 22 21 20 20 22 24 25 26 28 28 28 28 27 26 27 27 27
2 4 5 6 3 5 5 8 7 2 6 9 6 7 8 8 11 12 12 12 10 10 12 14 19 24 21 18 19 21 23 24 23 21 18 19 22 24 27 28 28 29 29 31 32 31 29 26 25 25 25 26 27 29 32 33 36 38 40 44 46 48 49 50 49 49 47 45 43 41 39 37 35 33 31 29 27 25 24 24 22 21 20 21 23 25 26 26 27 27 27 27 27 26 26 27 26
5 3 5 2 2 1 3 2 3 3 7 9 8 12 11 9 10 4 6 12 12 11 12 13 18 20 17 17 21 23 24 24 24 21 18 20 23 25 28 29 31 31 31 31 31 32 30 28 28 28 28 28 27 28 31 34 36 37 39 43 45 48 49 49 50 49 48 46 44 42 40 38 36 34 32 30 28 26 25 24 22 21 21 22 24 25 26 27 27 27 27 26 26 26 26 26 26
5 2 2 2 1 2 2 2 2 5 7 7 10 14 12 12 12 7 3 10 13 13 15 15 15 12 11 17 22 23 23 22 22 21 20 19 21 25 29 31 34 34 33 33 32 33 33 33 32 32 32 30 29 30 32 34 37 38 39 42 44 47 48 49 49 49 49 48 45 43 41 39 37 34 32 30 28 27 26 24 22 21 22 23 25 25 26 27 27 27 27 26 26 26 26 26 26
1 3 4 1 2 3 3 3 3 5 7 8 10 13 12 10 8 8 8 11 12 12 13 12 10 10 13 19 21 20 21 23 23 22 19 17 18 23 27 31 33 34 35 35 34 34 36 37 37 36 36 36 36 34 34 35 38 39 40 42 44 47 48 49 49 50 50 48 46 44 42 39 37 35 33 31 29 28 26 24 22 21 23 24 24 25 26 26 27 27 26 26 25 25 26 27 27
3 1 3 3 2 1 1 3 3 5 6 7 7 10 13 7 2 3 7 10 11 12 10 9 8 11 16 19 18 17 18 21 23 22 18 17 20 24 26 28 30 33 35 36 36 37 38 40 41 40 39 39 40 38 35 36 38 40 42 43 45 47 48 49 49 49 50 48 46 44 42 40 38 35 33 31 29 27 25 23 22 22 24 24 24 25 25 26 26 26 25 25 25 25 26 27 28
7 7 8 8 7 4 3 7 6 5 5 6 6 9 14 7 4 3 5 9 10 10 9 7 7 11 16 17 16 16 17 20 23 22 20 19 24 27 26 25 27 31 34 35 36 38 41 43 44 44 44 42 41 40 37 36 38 41 43 44 46 48 48 49 49 49 50 49 47 44 42 40 38 36 33 31 29 27 25 23 23 24 24 23 24 24 25 25 25 25 25 24 25 26 27 28 29
Wind_Direction
182 186 169 155 138 125 107 34 296 234 213 259 257 212 106 79 112 132 135 96 59 128 93 71 62 52 63 38 343 30 50 43 101 140 171 151 173 174 169 169 169 173 179 192 203 195 189 196 193 185 177 189 200 211 236 243 244 244 250 258 257 265 272 277 279 282 287 289 293 297 304 306 301 297 301 309 310 313 316 321 319 314 311 301 292 289 290 294 296 296 297 298 301 303 303 302 303
168 144 107 94 132 108 323 178 248 264 217 247 265 147 112 104 127 142 158 131 81 89 96 105 82 45 345 332 338 351 40 45 82 121 133 146 166 174 174 176 175 179 180 193 204 184 176 199 189 172 157 169 178 212 259 272 277 282 284 287 289 290 286 285 284 284 287 291 293 295 298 300 299 296 296 297 300 303 308 311 309 306 306 305 302 296 294 297 296 294 292 293 296 299 300 301 304
170 143 109 57 38 311 309 218 252 290 272 271 340 75 129 127 121 97 80 93 95 100 104 122 122 50 298 293 308 300 68 67 47 110 124 144 165 175 179 183 183 186 187 199 206 185 184 202 183 166 164 162 144 204 241 258 275 296 305 312 318 316 312 307 301 298 297 296 295 293 294 293 292 292 292 292 294 296 300 302 300 297 296 296 295 294 294 296 295 294 294 292 293 293 294 298 301
151 145 120 79 297 268 274 213 240 278 282 288 54 113 148 122 112 88 80 90 101 113 108 125 130 28 252 252 284 310 130 116 61 307 144 156 171 178 181 187 189 188 193 205 206 195 199 199 178 170 157 128 127 143 144 134 93 48 14 3 356 351 345 335 328 322 314 306 299 293 289 288 287 287 287 287 288 289 290 291 292 292 291 289 287 287 287 290 291 293 293 292 292 292 293 295 299
125 123 127 145 271 274 287 258 255 248 261 290 52 132 111 103 111 98 95 97 102 115 114 143 136 80 221 233 262 320 129 138 198 250 224 196 186 183 188 191 191 191 198 208 203 198 204 189 172 169 132 103 107 96 85 76 66 59 49 39 28 21 10 2 353 342 335 326 315 306 297 292 288 285 285 283 283 283 284 284 285 286 287 287 285 284 282 283 285 287 288 288 289 290 291 292 294
110 93 120 168 276 299 309 269 270 250 256 308 35 110 103 92 107 109 108 97 97 124 137 158 166 99 210 221 232 218 156 169 212 238 253 233 205 194 196 196 196 196 202 209 201 200 202 185 181 154 108 89 83 77 71 62 56 52 46 39 30 22 9 1 352 345 338 331 325 319 313 306 300 293 288 284 283 282 282 282 282 283 285 286 286 285 283 282 281 281 283 284 285 285 286 287 288
111 92 125 255 272 274 273 257 267 269 287 339 32 70 73 100 113 120 123 117 106 148 162 168 188 172 219 189 217 232 217 228 243 257 275 255 214 208 205 202 201 201 207 211 204 203 200 190 187 147 104 94 89 85 80 71 63 55 45 35 23 9 357 348 340 338 332 330 327 322 318 311 305 298 294 290 288 286 285 285 284 284 284 285 286 287 287 286 284 282 281 280 281 281 281 282 284
129 105 206 254 267 186 234 254 258 266 267 69 76 45 53 113 129 135 153 167 152 175 179 176 171 188 239 191 225 244 235 243 250 257 262 259 229 220 213 208 206 207 211 212 210 210 206 201 186 166 159 150 149 144 128 117 97 74 47 25 9 352 343 338 334 334 330 329 324 321 317 312 307 301 298 295 294 294 292 291 290 288 286 285 284 285 286 287 287 285 284 282 281 280 280 280 281
134 289 272 223 271 226 240 244 246 256 206 124 101 93 79 127 147 157 166 157 147 171 180 182 172 164 192 191 227 242 236 244 248 255 254 250 243 230 218 213 212 213 216 216 216 217 216 213 201 200 191 183 179 171 165 160 150 134 21 352 342 343 337 337 336 335 334 332 327 325 320 315 310 305 302 300 298 296 295 294 292 291 289 288 286 286 286 286 286 286 286 285 285 284 283 283 283
221 248 267 304 259 263 258 247 244 254 123 86 91 138 145 147 171 182 180 161 156 164 172 180 185 196 204 195 212 230 239 244 244 249 247 245 243 234 223 219 216 216 221 220 219 220 221 219 215 216 205 195 187 184 182 178 179 189 265 319 324 334 333 339 336 334 338 337 336 331 330 328 324 320 314 310 306 301 297 294 292 292 292 291 291 289 289 288 288 288 289 288 288 287 287 287 287
247 220 238 306 257 258 257 277 298 316 105 105 104 140 158 168 191 200 204 189 162 152 157 166 192 218 230 251 234 236 242 244 248 249 245 241 238 233 226 221 217 219 222 221 220 221 220 218 220 219 211 203 195 194 193 194 201 202 241 267 291 287 235 221 209 20 19 7 4 355 349 346 343 343 335 333 329 327 325 322 319 316 313 311 307 304 300 299 298 298 299 298 297 295 294 293 292
248 219 196 244 253 263 275 312 319 336 93 180 148 144 159 174 198 211 211 209 167 149 167 177 184 210 215 245 237 242 246 246 252 256 253 241 232 229 226 221 220 223 224 224 223 221 220 219 222 221 215 210 206 208 212 221 240 274 310 313 287 198 178 169 154 133 114 89 65 47 32 24 16 14 12 11 8 8 9 7 10 8 5 1 354 350 342 334 329 324 322 318 315 311 308 305 303
247 283 228 241 262 270 294 307 308 322 314 275 122 143 162 176 200 217 216 223 192 169 192 201 191 189 214 236 225 238 245 247 254 259 254 239 232 228 225 223 224 226 225 226 226 224 223 224 227 225 220 217 217 223 232 246 275 304 321 328 323 309 205 151 123 96 76 57 47 37 30 25 23 21 22 23 22 21 21 20 19 18 17 14 11 7 4 1 357 352 348 343 337 331 326 323 319
243 294 305 272 285 282 290 281 285 307 289 31 85 137 161 181 207 220 227 236 216 206 211 208 198 187 241 243 227 239 243 247 256 260 246 236 234 228 227 226 227 227 226 228 226 225 226 227 229 227 223 221 222 227 235 248 266 293 308 313 314 309 308 326 345 357 359 359 360 360 1 2 4 6 9 11 14 15 16 18 17 17 15 13 12 9 6 3 1 358 355 352 349 344 339 335 330
254 301 311 258 288 284 269 255 267 294 286 85 106 147 169 198 209 218 233 237 231 211 173 185 195 183 236 232 221 235 240 245 254 253 240 239 235 230 231 229 228 227 227 229 227 228 228 227 229 226 223 220 222 225 230 239 250 268 281 287 290 283 284 301 314 324 325 326 329 332 337 341 345 349 353 356 358 1 4 6 6 7 6 5 4 3 1 358 357 355 353 352 350 348 345 344 341
262 295 303 256 272 273 247 225 272 288 254 122 142 156 176 215 211 216 231 228 231 206 190 188 202 208 224 234 226 226 234 239 240 239 236 240 235 231 234 230 228 228 228 231 229 229 229 229 230 228 224 221 222 223 228 233 237 246 251 257 257 250 255 272 287 297 299 299 300 303 308 311 320 327 334 339 342 346 349 353 355 356 357 357 356 354 354 352 351 348 347 348 346 346 345 345 343
258 264 253 264 259 264 249 199 162 208 205 127 161 174 183 215 210 224 234 230 236 229 223 219 219 226 234 241 242 237 239 242 240 241 240 240 237 234 235 231 229 230 231 232 231 230 231 231 232 232 228 224 222 221 226 229 231 235 237 240 237 234 241 256 269 276 277 275 274 273 278 285 296 306 314 322 327 333 338 344 347 350 351 350 350 348 347 346 344 342 341 339 339 338 336 335 333
216 202 228 243 249 253 285 321 356 39 50 128 176 188 212 225 195 221 239 235 235 241 243 238 235 238 241 243 246 246 245 246 248 249 247 244 240 238 237 235 234 234 233 234 233 232 233 233 233 234 230 226 222 221 224 226 229 231 232 234 229 229 237 249 259 265 266 264 262 259 261 270 281 292 301 309 317 326 331 338 342 344 347 345 345 344 342 340 337 335 333 331 331 329 328 327 327
213 233 253 245 260 269 293 333 345 360 326 321 198 192 218 243 204 204 229 235 225 234 244 238 236 237 239 241 243 246 246 247 250 250 250 249 246 244 242 239 238 239 239 237 237 236 234 234 234 235 232 228 224 222 225 226 229 229 229 229 226 228 235 245 254 259 261 260 257 254 254 261 272 283 293 299 308 316 322 329 336 341 344 344 344 342 339 335 332 328 325 324 323 323 324 324 325
222 228 263 252 271 318 313 328 325 318 318 313 289 224 206 238 228 186 213 252 229 226 236 226 227 231 233 238 241 244 245 246 249 249 250 252 250 248 246 244 244 245 246 243 241 239 237 235 235 235 232 229 225 224 225 227 228 228 228 227 226 229 236 244 252 257 258 257 254 249 250 257 267 278 287 294 301 307 314 323 332 337 341 343 341 339 337 333 331 327 324 322 319 319 319 320 321
220 206 229 265 283 320 318 346 327 294 303 286 292 282 223 242 239 210 212 258 246 233 238 229 229 236 233 234 241 245 246 247 247 249 250 251 250 248 248 249 249 249 249 246 242 242 242 239 236 236 234 230 227 225 225 227 228 228 227 228 228 231 238 244 250 255 256 254 249 246 250 255 265 275 284 289 293 298 304 311 319 327 330 334 335 335 334 333 332 329 327 326 324 322 321 321 321
240 236 243 264 270 276 300 335 255 258 266 265 277 271 256 250 237 227 215 230 243 234 241 242 239 242 239 236 241 244 246 248 248 249 249 250 251 249 247 247 247 246 246 246 245 245 244 241 239 238 236 231 229 227 226 227 227 228 227 228 231 234 239 244 249 252 252 249 245 244 248 255 263 269 276 279 282 286 291 298 306 316 323 329 331 333 335 334 333 331 329 327 326 325 325 324 324
232 253 248 262 271 273 276 279 256 254 256 247 253 260 259 248 242 240 228 235 247 245 244 259 255 243 239 239 240 240 242 246 248 250 252 252 253 251 248 246 246 246 247 248 247 245 244 242 240 239 236 232 230 228 226 226 227 227 227 228 231 235 240 243 246 248 247 244 241 242 247 255 261 265 269 271 273 277 283 291 300 310 319 328 331 333 337 337 335 332 329 326 326 326 325 324 323
227 262 259 270 279 275 268 273 263 252 247 243 248 269 260 236 245 255 246 246 251 255 252 257 264 256 243 240 240 241 245 248 251 255 257 257 257 257 253 248 247 247 247 247 247 247 245 243 241 239 236 233 232 229 228 226 227 228 227 229 233 236 240 243 245 245 244 241 239 242 248 255 260 265 266 266 270 274 280 288 298 309 319 328 332 335 338 338 336 332 329 327 326 326 325 325 324
224 250 260 268 278 275 269 267 259 251 248 247 249 259 252 242 251 266 259 257 256 255 254 251 256 259 252 247 247 247 249 251 254 255 256 257 256 253 249 245 242 243 245 246 247 248 247 245 243 240 236 233 232 231 229 227 228 230 228 230 233 237 240 242 244 244 243 240 239 242 248 256 260 263 263 264 268 273 280 288 297 308 319 328 332 336 337 335 334 331 329 327 325 326 327 327 327
231 267 279 288 288 285 278 262 249 244 244 240 237 248 252 252 257 265 261 263 263 256 252 248 247 252 252 249 250 250 251 251 253 254 255 256 252 248 246 242 238 240 244 245 246 248 248 246 245 241 236 233 233 231 230 228 230 230 230 232 234 237 240 242 243 243 243 240 240 244 249 256 259 260 259 259 264 271 277 283 294 307 320 328 332 334 335 333 333 332 330 328 328 329 331 331 331
292 304 302 294 286 282 274 264 252 240 238 228 216 242 257 254 241 254 262 267 269 255 248 246 241 244 249 248 248 250 252 253 254 254 253 251 248 247 245 241 239 239 241 242 244 246 246 246 246 242 236 233 232 231 230 230 231 231 232 234 235 238 241 242 243 244 243 241 240 244 249 254 257 256 255 256 260 267 274 281 294 308 321 329 331 331 332 332 332 333 332 332 332 332 334 335 335
293 312 307 286 279 275 263 257 249 235 237 224 212 249 263 248 209 242 258 263 261 251 244 242 237 239 244 246 246 246 249 253 253 250 247 248 248 247 245 243 241 237 238 242 243 244 245 246 245 243 237 233 231 230 230 231 232 232 234 235 237 239 241 241 243 243 242 240 241 244 249 253 255 255 253 256 261 267 273 283 297 309 322 328 328 328 329 331 333 334 334 334 333 333 335 336 337
293 302 301 284 280 273 257 250 237 220 225 210 193 270 263 229 223 242 257 260 252 249 244 240 237 237 239 243 246 245 248 250 247 247 248 250 250 248 247 247 245 239 238 241 241 242 245 245 245 242 238 234 232 231 231 232 233 233 235 236 238 239 240 241 241 242 240 239 240 243 247 252 253 253 252 255 260 265 272 282 297 308 320 325 323 324 327 330 333 334 334 334 334 334 335 335 337
278 263 257 281 292 273 259 250 223 202 191 177 160 255 255 231 232 240 259 261 246 240 242 239 236 238 239 242 246 247 247 245 245 249 251 250 249 248 247 247 245 241 239 238 239 242 243 243 243 241 238 236 233 233 233 233 233 234 236 237 238 239 239 240 240 240 239 238 240 242 246 249 250 249 250 252 256 261 267 279 293 306 318 321 320 322 326 329 331 333 334 335 335 334 334 336 337
254 275 252 257 282 273 274 245 179 172 175 168 156 253 252 262 253 243 253 252 235 228 235 235 231 235 241 245 250 250 247 247 249 252 252 250 249 247 245 244 243 241 238 238 240 241 242 242 242 240 239 237 234 233 234 233 234 234 236 237 237 237 238 239 239 239 238 237 238 242 245 247 248 247 248 249 251 256 265 278 293 306 316 317 316 319 324 327 329 332 333 334 334 333 334 336 336
212 259 266 231 227 263 282 156 162 169 173 174 165 255 249 256 265 260 252 237 224 219 230 233 230 234 242 249 253 252 251 252 252 251 250 250 248 245 244 242 240 241 240 239 239 239 240 241 241 240 240 238 234 233 234 233 234 234 235 237 236 237 237 237 237 237 237 238 239 241 245 246 246 247 246 246 248 254 264 278 293 305 312 314 313 317 322 324 326 330 332 332 332 334 334 335 335
209 195 248 242 234 266 271 184 187 174 130 186 195 235 257 235 247 261 239 218 214 216 228 231 233 238 244 252 254 251 250 251 250 248 247 248 248 245 243 241 240 242 242 240 239 238 239 239 239 239 240 239 234 233 233 233 234 234 235 236 235 235 236 236 236 236 238 239 240 242 245 246 246 246 244 244 247 253 264 279 292 303 308 310 310 314 319 321 323 327 329 329 331 334 334 333 333
241 210 238 242 238 259 260 275 229 188 134 200 214 232 255 250 248 262 252 219 210 213 228 237 246 253 256 258 258 254 250 248 250 249 245 246 249 247 244 243 241 241 241 239 238 238 239 239 238 238 239 238 234 233 233 233 234 233 234 236 234 235 235 235 236 237 238 239 241 244 245 245 245 244 242 242 246 253 265 279 291 300 304 306 308 313 317 318 319 322 326 330 332 333 332 332 332
252 248 260 262 250 254 258 278 215 186 175 218 217 230 250 255 258 263 264 254 234 225 232 245 255 259 261 262 261 260 255 252 255 254 248 245 248 249 246 244 241 239 237 235 235 236 237 237 237 237 237 236 234 233 232 233 233 232 233 234 233 233 234 234 235 236 237 238 242 244 244 244 244 242 240 241 246 255 267 279 290 297 301 305 308 311 314 314 316 320 324 328 329 329 330 331 332
260 267 270 271 271 268 265 273 192 179 194 221 221 231 250 256 250 251 259 260 256 248 241 244 251 256 260 262 261 260 257 257 259 257 251 245 246 249 246 243 241 237 235 233 232 232 234 235 235 235 235 235 234 232 231 230 231 231 232 233 232 232 232 234 235 236 237 239 242 243 242 243 242 239 238 240 247 257 269 280 289 294 300 303 306 309 310 312 316 320 323 324 325 326 328 331 334
255 265 268 266 269 269 270 277 215 185 196 222 227 235 249 258 256 250 257 260 261 260 254 249 252 257 262 264 265 263 260 261 260 255 251 244 243 246 243 241 239 235 232 231 230 230 233 235 235 235 234 235 235 234 232 231 232 232 232 233 233 232 232 233 234 235 236 239 242 242 241 242 240 238 238 241 249 259 270 280 287 293 298 301 303 305 308 311 315 318 320 321 323 324 328 333 335
254 259 268 272 265 266 274 280 212 179 199 238 243 249 255 260 261 257 257 258 256 256 258 257 258 261 264 266 267 266 265 260 252 247 243 237 238 240 238 237 236 233 230 229 230 231 233 235 236 237 237 237 237 236 235 234 235 235 236 237 235 234 234 235 236 236 237 239 241 241 240 240 239 237 239 243 250 260 270 279 286 292 296 299 300 303 306 309 313 316 318 320 322 323 327 333 335
264 268 277 275 268 274 279 274 171 142 194 249 258 262 263 264 263 260 256 252 252 252 253 257 260 262 263 265 265 266 265 250 238 234 232 230 237 238 234 234 234 234 232 231 232 231 232 234 236 238 238 238 239 238 236 236 236 237 237 238 236 234 235 235 235 236 237 239 240 240 239 239 238 237 240 244 251 260 269 277 285 291 294 296 297 300 303 307 312 315 316 317 319 321 324 329 333
248 251 263 264 261 270 278 261 168 177 207 246 275 272 266 269 265 258 253 251 253 253 253 256 259 261 262 263 264 265 258 239 228 226 227 228 235 236 232 231 231 230 230 229 230 230 231 234 236 237 238 239 239 238 237 236 235 234 234 234 233 233 233 233 233 234 237 239 239 240 240 239 237 238 241 245 252 259 267 275 283 289 292 293 294 298 302 307 311 311 312 314 317 318 320 325 329
239 220 230 252 257 253 256 262 231 216 228 247 306 288 264 251 251 252 249 246 249 250 249 250 254 259 264 263 264 262 251 238 230 226 226 229 236 237 232 230 228 228 229 228 229 230 232 234 235 237 238 238 238 237 236 234 232 230 229 228 228 228 229 231 233 234 237 238 239 239 239 238 238 239 242 246 252 258 266 274 281 287 289 290 293 297 301 305 307 307 309 311 313 315 317 320 325
260 213 218 243 256 259 264 288 338 325 276 232 30 303 273 208 222 247 246 225 234 240 238 239 242 250 261 264 264 263 253 242 239 235 233 235 241 238 231 227 225 226 227 227 229 230 231 233 233 235 236 236 236 236 235 233 232 231 231 229 229 229 229 232 235 238 239 239 240 239 238 238 238 240 243 247 252 258 266 273 279 285 286 288 292 296 300 303 304 304 305 307 310 313 314 317 322
272 227 224 248 262 270 270 289 323 255 265 241 104 331 286 252 220 243 247 209 220 227 228 237 235 239 252 261 264 265 259 244 237 235 234 235 239 237 232 227 223 223 224 224 226 227 229 230 231 233 235 236 235 235 235 234 234 233 234 235 236 236 236 237 239 239 239 239 239 239 238 238 238 240 243 247 252 258 265 272 278 282 284 287 291 295 299 300 301 301 302 304 307 311 313 315 319
265 233 218 272 268 267 257 259 237 230 292 277 151 144 277 279 244 215 223 215 226 231 227 244 242 237 244 253 262 265 259 248 237 230 232 235 240 241 237 230 223 221 221 220 222 223 225 227 229 232 234 236 236 235 235 236 236 236 236 236 236 238 238 239 239 238 237 237 238 239 239 239 238 239 243 246 252 258 263 270 276 280 281 285 289 294 297 298 298 299 300 302 305 308 312 315 317
248 191 105 105 124 260 129 226 246 276 323 279 184 148 259 282 265 185 204 206 221 232 228 239 248 245 242 245 257 262 257 252 244 235 237 242 244 245 241 232 225 221 218 218 219 219 222 224 226 230 233 236 236 236 237 237 238 238 238 237 236 236 236 236 236 236 236 237 238 240 239 238 237 239 242 246 250 256 262 268 273 276 279 283 288 292 294 295 296 297 298 301 303 308 313 315 316
217 154 84 86 98 35 96 232 256 335 287 245 194 155 228 279 275 155 189 205 213 226 227 232 241 248 249 244 250 255 251 251 247 239 242 247 248 245 239 229 222 218 216 216 217 218 220 222 224 227 231 235 236 237 238 238 238 238 238 237 236 235 233 232 232 233 235 237 237 238 237 236 237 238 241 244 248 254 260 266 270 273 277 281 286 289 291 292 293 295 297 300 305 310 315 316 314
157 134 77 47 284 9 72 241 105 329 270 240 194 181 194 272 285 139 177 198 198 209 215 227 240 248 252 250 246 242 239 244 245 241 239 240 242 239 233 224 216 214 213 213 215 215 218 220 221 225 230 234 236 237 239 239 239 239 239 238 237 235 233 232 233 233 234 235 235 236 236 236 237 238 241 244 248 253 258 263 267 270 274 278 283 286 288 290 292 294 298 302 308 313 315 314 313
126 125 130 339 301 10 32 306 96 234 267 229 181 185 191 235 258 144 205 204 193 201 196 209 229 240 247 250 244 232 227 232 238 240 239 233 229 225 222 218 212 210 210 210 211 212 215 218 218 222 228 234 236 237 239 239 239 239 239 238 237 236 235 235 236 236 236 236 235 235 234 235 236 237 240 243 247 251 256 261 265 268 271 275 280 285 287 289 292 296 300 305 309 313 313 312 311
150 139 140 147 281 306 319 254 141 226 256 225 178 181 200 237 246 216 238 221 196 206 200 198 208 229 242 243 229 221 222 226 230 235 239 235 226 217 212 211 209 209 209 208 209 211 214 216 216 220 229 235 237 238 238 239 240 240 239 238 238 236 236 237 238 238 238 237 236 235 235 234 235 237 240 244 248 252 256 259 262 265 269 275 280 285 287 289 293 297 301 305 309 312 311 311 310
179 160 149 167 210 250 248 241 243 244 258 255 183 174 217 264 249 204 221 226 203 203 207 208 215 233 246 242 220 219 226 232 234 232 236 237 229 219 212 212 211 211 211 211 212 213 214 214 215 220 229 236 239 238 239 239 240 240 240 239 239 238 237 238 238 238 238 237 237 237 236 236 236 238 241 244 247 251 254 257 261 264 269 276 281 283 285 288 292 297 301 305 309 311 310 310 310
197 176 158 194 196 217 243 233 246 261 280 276 176 162 222 271 205 190 207 222 216 209 209 215 229 238 245 238 220 225 236 241 242 236 236 237 232 223 217 218 219 218 217 217 216 215 215 215 214 218 226 233 238 238 237 239 240 240 240 240 239 239 239 239 238 238 238 238 237 237 236 236 236 238 240 243 246 249 253 256 260 264 270 276 279 280 283 288 293 297 302 306 309 310 309 308 307
217 155 158 232 204 190 244 254 249 276 317 272 212 210 240 269 275 228 215 224 223 218 211 210 226 236 234 223 219 232 243 248 248 242 238 236 231 225 222 223 226 225 224 223 220 217 215 215 215 219 225 231 237 238 237 238 240 240 241 240 239 239 238 238 238 238 237 237 237 236 236 235 236 237 239 242 246 248 252 255 259 264 269 274 276 279 283 289 294 298 303 306 307 307 306 305 305
186 142 193 227 176 164 220 266 274 288 284 271 254 254 272 300 285 244 219 221 214 210 209 205 223 232 226 219 225 239 247 250 250 248 245 238 234 232 229 229 231 230 229 228 225 221 218 218 219 221 224 228 232 235 237 237 238 240 241 241 240 239 238 238 237 237 237 237 236 236 235 234 234 236 238 241 244 247 250 253 257 262 268 273 275 279 285 290 295 299 303 305 305 304 302 303 303
130 178 217 202 30 92 173 257 301 264 257 271 274 271 282 289 282 264 194 212 206 197 201 207 221 225 218 218 230 242 249 252 253 251 247 240 237 238 237 237 237 235 234 234 231 228 224 222 224 225 226 228 230 233 235 236 237 239 241 241 240 240 239 238 238 237 236 236 236 235 234 233 233 235 237 240 242 245 248 251 255 261 267 272 275 280 286 291 296 300 303 303 302 301 300 301 303
138 224 275 107 129 248 168 174 229 244 250 268 277 279 277 260 264 296 242 204 201 200 202 208 218 215 207 219 231 242 248 249 250 250 247 242 243 245 244 243 242 240 239 238 236 233 229 226 227 228 229 231 232 232 233 235 236 238 241 242 241 240 239 238 237 236 236 236 235 234 234 233 233 234 236 239 241 244 247 250 255 261 266 270 275 281 286 291 296 299 300 300 299 299 299 301 303
81 359 346 81 167 180 180 191 200 223 240 263 278 283 278 256 248 264 237 195 190 198 202 209 216 207 207 220 233 242 247 247 249 251 250 250 260 260 251 248 249 247 245 242 239 236 235 232 230 230 230 231 231 231 233 235 237 238 239 241 241 240 239 237 236 236 235 235 235 234 233 233 233 234 236 238 240 243 246 250 256 261 265 269 275 281 287 292 295 297 297 298 298 299 300 303 304
177 238 253 223 208 150 227 249 221 216 229 245 258 269 272 262 157 220 204 179 189 197 199 215 221 214 216 223 233 242 251 255 254 251 249 258 272 269 257 252 253 252 250 248 246 243 240 237 235 233 232 231 230 231 233 236 237 237 238 240 240 239 238 237 235 235 235 235 234 233 232 232 233 234 235 237 239 243 246 251 257 261 265 270 276 282 288 292 294 295 297 298 298 300 301 303 304
186 200 211 210 206 195 245 248 229 217 226 234 239 257 264 262 77 79 160 171 193 189 181 196 202 213 222 227 237 249 261 265 262 255 252 264 274 268 255 253 258 258 256 255 254 252 249 245 241 238 234 233 233 232 234 236 237 237 238 239 238 238 237 236 235 234 234 233 232 232 231 231 232 233 234 236 239 242 246 252 257 262 266 271 277 283 287 291 293 295 297 297 298 300 302 303 304